Location: G�ppingen
(48.7089°N, 9.6563°E)
Time: 03:16:40
(UTC+02:00)

ISS - Visible Passes

Search period start: 25 May 2017 00:00
Search period end: 04 June 2017 00:00
Orbit: 402 x 409 km, 51.6° (Epoch: 25 May)

Date Brightness Start Highest point End Pass type
(mag) Time Alt. Az. Time Alt. Az. Time Alt. Az.
25 May -2.9 01:06:01 10° W 01:09:14 49° N 01:12:28 10° ENE visible
25 May -3.6 02:42:42 10° WNW 02:46:00 70° NNE 02:49:16 10° ESE visible
25 May -3.0 04:19:24 10° W 04:22:20 30° SW 04:25:14 10° SSE visible
25 May -3.7 22:37:22 10° SW 22:40:35 52° SSE 22:43:49 10° ENE visible
26 May -3.1 00:13:52 10° W 00:17:07 54° N 00:20:22 10° ENE visible
26 May -3.2 01:50:39 10° WNW 01:53:55 56° N 01:57:09 10° E visible
26 May -3.7 03:27:13 10° WNW 03:30:24 48° SSW 03:33:34 10° SE visible
26 May -3.1 21:45:39 10° SSW 21:48:39 33° SE 21:51:40 10° E visible
26 May -3.5 23:21:44 10° W 23:25:01 67° NNW 23:28:19 10° ENE visible
27 May -2.9 00:58:33 10° WNW 01:01:47 49° N 01:05:00 10° E visible
27 May -4.0 02:35:08 10° WNW 02:38:25 74° SSW 02:41:42 10° ESE visible
27 May -2.2 04:12:24 10° W 04:14:29 16° SW 04:16:33 10° S visible
27 May -3.8 22:29:38 10° WSW 22:32:56 89° N 22:36:15 10° ENE visible
28 May -2.8 00:06:25 10° WNW 00:09:38 48° N 00:12:51 10° ENE visible
28 May -3.8 01:43:04 10° WNW 01:46:22 78° NNE 01:47:25 40° E visible
28 May -1.3 03:19:51 10° W 03:19:57 11° W 03:19:57 11° W visible
28 May -2.9 23:14:14 10° W 23:17:29 51° N 23:20:43 10° ENE visible
29 May -3.3 00:50:59 10° WNW 00:54:16 60° NNE 00:56:00 24° E visible
29 May -1.8 02:27:34 10° WNW 02:28:36 18° W 02:28:36 18° W visible
29 May -3.2 22:22:03 10° W 22:25:19 61° NNW 22:28:36 10° ENE visible
29 May -3.0 23:58:52 10° WNW 00:02:06 51° N 00:05:06 12° E visible
30 May -3.0 01:35:25 10° WNW 01:37:42 39° W 01:37:42 39° W visible
30 May -2.8 23:06:42 10° WNW 23:09:55 48° N 23:13:08 10° ENE visible
31 May -3.9 00:43:18 10° WNW 00:46:37 88° NNE 00:47:00 67° ESE visible
31 May -2.8 22:14:29 10° W 22:17:43 50° N 22:20:57 10° ENE visible
31 May -3.5 23:51:12 10° WNW 23:54:29 66° NNE 23:56:23 23° E visible
01 Jun -1.8 01:27:50 10° W 01:29:01 19° W 01:29:01 19° W visible
01 Jun -3.1 22:59:03 10° WNW 23:02:18 54° N 23:05:33 10° E visible
02 Jun -3.5 00:35:36 10° WNW 00:38:28 50° WSW 00:38:28 50° WSW visible
02 Jun -2.9 22:06:52 10° WNW 22:10:05 48° N 22:13:18 10° E visible
02 Jun -3.9 23:43:26 10° WNW 23:46:45 82° SSW 23:47:56 36° ESE visible
03 Jun -1.1 01:20:33 10° W 01:20:35 10° W 01:20:35 10° W visible
03 Jun -3.6 22:51:17 10° WNW 22:54:35 73° NNE 22:57:28 13° ESE visible
